Погода в Лардосе

Греция     36°05′41″N   28°00′57″E
темп.,
°C
ветер,
м/с
пор.,
м/с
влажн.,
%
обл.,
%
осадки,
мм/ч
давл.,
гПа
погр.,
м
8 марта, пн
пн823:00+14сз8116316 0.0 1017510
02:00+14сз710619 0.0 1017506
05:00+13сз710580 0.0 1017531
08:00+13зсз89570 0.0 1017447
11:00+15сз8104727 0.0 1017638
14:00+15зсз895263 0.0 1015617
17:00+14сз6858100 0.0 1015461
20:00+14зсз6759100 0.0 1015358
9 марта, вт
вт923:00+14сз4561100 0.0 1015243
02:00+14ссз3460100 0.0 1015216
05:00+14ссв2257100 0.0 1014199
08:00+15св4457100 0.0 1014286
11:00+16в5553100 0.0 1014416
14:00+16вюв5660100 0.0 1013430
17:00+16в67700 0.0 1013588
20:00+16в68720 0.0 1014636
10 марта, ср
ср1023:00+16в687224 0.0 1014700
02:00+16в8116831 0.0 1013747
05:00+16в811670 0.0 1012847
08:00+16в59670 0.0 1013879
11:00+17в79710 0.0 1013942
14:00+17в67760 0.0 1012822
17:00+16вюв33772 0.1 1011590
20:00+16сз227635 0.1 1012300
11 марта, чт
чт1123:00+15сз3372100 0.0 1013185
02:00+15сз4676100 0.0 1013503
05:00+15зсз578067 0.0 1012578
08:00+15зсз677883 0.0 1013597
11:00+17зсз796694 0.0 1014716
14:00+17зсз8106697 0.0 1014815
17:00+16сз9116797 0.0 1014861
20:00+15сз9146848 0.0 1015716
12 марта, пт
пт1223:00+15сз913630 0.0 1016499
02:00+13сз810640 0.0 1017372
05:00+12сз67700 0.0 1017362
08:00+12сз45620 0.0 1019459
11:00+15ю11390 0.0 1019458
14:00+16ююз22460 0.0 1019553
17:00+15сз12470 0.0 1019442
20:00+14ссз22540 0.0 1020258